LXJ651 KBKL-CYHU

Flight info

Callsign LXJ651
Flight time 1h 3m
Altitude 41000
Route MYCAR5 MYCAR DCT ART DCT CURDS DCT DAVDA DCT SSENA DCT TALNO DCT VISIX DCT EBDOT DCT VOBOK
Aircraft GLF6/M-SBDE2E3FGHIJ4J5M1RWXY/LB1D1

Departure

Time 2026-05-09 04:14
Airport Burke Lakefront Airport (KBKL)

Arrival

Time 2026-05-09 05:17
Airport Montréal / Saint-Hubert Metropolitan Airport (CYHU)
Time Latitude Longitude Altitude Speed Heading
2026-05-09 04:00 41.51221 -81.68792 587 ft 0 kts 241°
2026-05-09 04:09 41.51218 -81.68816 587 ft 8 kts 271°
2026-05-09 04:09 41.51260 -81.68866 587 ft 9 kts 327°
2026-05-09 04:09 41.51323 -81.68891 587 ft 11 kts 27°
2026-05-09 04:10 41.51386 -81.68772 587 ft 21 kts 58°
2026-05-09 04:10 41.51472 -81.68591 587 ft 24 kts 58°
2026-05-09 04:10 41.51530 -81.68467 587 ft 25 kts 58°
2026-05-09 04:10 41.51666 -81.68179 588 ft 28 kts 58°
2026-05-09 04:11 41.51739 -81.68025 588 ft 30 kts 58°
2026-05-09 04:11 41.51885 -81.67715 587 ft 30 kts 58°
2026-05-09 04:11 41.51997 -81.67477 587 ft 30 kts 58°
2026-05-09 04:11 41.52109 -81.67240 587 ft 30 kts 58°
2026-05-09 04:12 41.52185 -81.67077 587 ft 9 kts 58°
2026-05-09 04:12 41.52244 -81.67068 587 ft 11 kts 327°
2026-05-09 04:12 41.52289 -81.67107 587 ft 13 kts 328°
2026-05-09 04:12 41.52361 -81.67166 587 ft 5 kts 325°
2026-05-09 04:13 41.52354 -81.67209 587 ft 6 kts 241°
2026-05-09 04:13 41.52350 -81.67217 587 ft 0 kts 238°
2026-05-09 04:13 41.52146 -81.67647 586 ft 106 kts 238°
2026-05-09 04:13 41.51601 -81.68795 839 ft 177 kts 236°
2026-05-09 04:14 41.51128 -81.69781 1329 ft 186 kts 237°
2026-05-09 04:14 41.50680 -81.71400 1484 ft 193 kts 262°
2026-05-09 04:14 41.50938 -81.73135 1730 ft 193 kts 294°
2026-05-09 04:14 41.51894 -81.74416 1867 ft 203 kts 325°
2026-05-09 04:15 41.53283 -81.74972 1894 ft 214 kts 343°
2026-05-09 04:15 41.54718 -81.75377 1977 ft 211 kts 341°
2026-05-09 04:15 41.56159 -81.75815 2100 ft 215 kts 343°
2026-05-09 04:15 41.58313 -81.75255 3404 ft 258 kts 27°
2026-05-09 04:16 41.59236 -81.74182 4080 ft 269 kts 46°
2026-05-09 04:16 41.60400 -81.72171 5119 ft 276 kts 51°
2026-05-09 04:16 41.61540 -81.70040 6143 ft 287 kts 54°
2026-05-09 04:16 41.62672 -81.67801 7134 ft 297 kts 54°
2026-05-09 04:17 41.63847 -81.65542 8138 ft 296 kts 53°
2026-05-09 04:17 41.65059 -81.63252 9189 ft 307 kts 52°
2026-05-09 04:17 41.66299 -81.60894 10232 ft 320 kts 52°
2026-05-09 04:17 41.67659 -81.58305 11244 ft 360 kts 53°
2026-05-09 04:18 41.69148 -81.55460 12270 ft 375 kts 53°
2026-05-09 04:18 41.70644 -81.52586 13332 ft 384 kts 53°
2026-05-09 04:18 41.72171 -81.49672 14330 ft 388 kts 52°
2026-05-09 04:18 41.73732 -81.46686 15320 ft 398 kts 52°
2026-05-09 04:19 41.75329 -81.43628 16344 ft 402 kts 52°
2026-05-09 04:19 41.76945 -81.40523 17398 ft 412 kts 52°
2026-05-09 04:19 41.78477 -81.37231 18432 ft 421 kts 60°
2026-05-09 04:19 41.79559 -81.33540 19408 ft 432 kts 69°
2026-05-09 04:20 41.80504 -81.29680 20435 ft 441 kts 69°
2026-05-09 04:20 41.81485 -81.25738 21440 ft 451 kts 69°
2026-05-09 04:20 41.82468 -81.21763 22462 ft 460 kts 69°
2026-05-09 04:20 41.83478 -81.17646 23472 ft 470 kts 68°
2026-05-09 04:21 41.84512 -81.13445 24301 ft 479 kts 68°
2026-05-09 04:21 41.85564 -81.09166 25134 ft 488 kts 68°
2026-05-09 04:21 41.87701 -81.00348 26823 ft 506 kts 69°
2026-05-09 04:22 41.89143 -80.94324 27928 ft 518 kts 69°
2026-05-09 04:22 41.89898 -80.91199 28493 ft 524 kts 69°
2026-05-09 04:22 41.91029 -80.86505 29326 ft 533 kts 69°
2026-05-09 04:22 41.92182 -80.81805 30092 ft 541 kts 66°
2026-05-09 04:23 41.93774 -80.77241 30831 ft 540 kts 56°
2026-05-09 04:23 41.95727 -80.72925 31614 ft 543 kts 52°
2026-05-09 04:23 41.97733 -80.68593 32390 ft 549 kts 52°
2026-05-09 04:23 41.99753 -80.64205 33157 ft 555 kts 52°
2026-05-09 04:24 42.01798 -80.59767 33907 ft 561 kts 52°
2026-05-09 04:24 42.03866 -80.55279 34529 ft 567 kts 52°
2026-05-09 04:24 42.05951 -80.50740 35142 ft 572 kts 53°
2026-05-09 04:24 42.08003 -80.46255 35972 ft 570 kts 53°
2026-05-09 04:25 42.10082 -80.41711 36786 ft 569 kts 53°
2026-05-09 04:25 42.12158 -80.37181 37554 ft 568 kts 53°
2026-05-09 04:25 42.14228 -80.32648 38321 ft 567 kts 53°
2026-05-09 04:25 42.16291 -80.28118 38951 ft 567 kts 54°
2026-05-09 04:26 42.18347 -80.23601 39540 ft 565 kts 54°
2026-05-09 04:26 42.20403 -80.19080 40108 ft 564 kts 54°
2026-05-09 04:26 42.22450 -80.14568 40663 ft 563 kts 54°
2026-05-09 04:26 42.24505 -80.10039 40896 ft 571 kts 54°
2026-05-09 04:27 42.26573 -80.05478 40905 ft 584 kts 54°
2026-05-09 04:27 42.30827 -79.96033 40912 ft 592 kts 54°
2026-05-09 04:28 42.35109 -79.86527 40914 ft 591 kts 55°
2026-05-09 04:28 42.39359 -79.77045 40919 ft 588 kts 55°
2026-05-09 04:29 42.43560 -79.67650 40920 ft 587 kts 55°
2026-05-09 04:29 42.47777 -79.58188 40921 ft 587 kts 55°
2026-05-09 04:30 42.51984 -79.48720 40926 ft 586 kts 55°
2026-05-09 04:30 42.56182 -79.39237 40922 ft 586 kts 55°
2026-05-09 04:31 42.60365 -79.29762 40924 ft 584 kts 55°
2026-05-09 04:31 42.64503 -79.20356 40926 ft 584 kts 56°
2026-05-09 04:32 42.68662 -79.10875 40925 ft 585 kts 56°
2026-05-09 04:32 42.72818 -79.01370 40931 ft 584 kts 56°
2026-05-09 04:33 42.76935 -78.91922 40928 ft 584 kts 56°
2026-05-09 04:33 42.81064 -78.82415 40929 ft 583 kts 56°
2026-05-09 04:34 42.85184 -78.72899 40921 ft 582 kts 56°
2026-05-09 04:34 42.89289 -78.63389 40927 ft 582 kts 56°
2026-05-09 04:35 42.93358 -78.53928 40930 ft 582 kts 56°
2026-05-09 04:35 42.97445 -78.44399 40934 ft 582 kts 56°
2026-05-09 04:36 43.01524 -78.34852 40936 ft 582 kts 57°
2026-05-09 04:36 43.05593 -78.25300 40933 ft 581 kts 57°
2026-05-09 04:37 43.09627 -78.15801 40932 ft 581 kts 57°
2026-05-09 04:37 43.13676 -78.06232 40935 ft 581 kts 57°
2026-05-09 04:38 43.17720 -77.96645 40937 ft 581 kts 57°
2026-05-09 04:38 43.21750 -77.87057 40945 ft 581 kts 57°
2026-05-09 04:39 43.25776 -77.77452 40946 ft 581 kts 57°
2026-05-09 04:39 43.29767 -77.67893 40947 ft 581 kts 57°
2026-05-09 04:40 43.33777 -77.58258 40943 ft 581 kts 57°
2026-05-09 04:40 43.37780 -77.48612 40943 ft 581 kts 58°
2026-05-09 04:41 43.41771 -77.38958 40952 ft 581 kts 58°
2026-05-09 04:41 43.45736 -77.29338 40951 ft 581 kts 58°
2026-05-09 04:42 43.49713 -77.19653 40952 ft 581 kts 58°
2026-05-09 04:42 43.53681 -77.09959 40950 ft 580 kts 58°
2026-05-09 04:43 43.57636 -77.00263 40947 ft 580 kts 58°
2026-05-09 04:43 43.60998 -76.91999 40955 ft 581 kts 58°
2026-05-09 04:44 43.64941 -76.82271 40949 ft 581 kts 58°
2026-05-09 04:44 43.68660 -76.73066 40951 ft 580 kts 58°
2026-05-09 04:45 43.71333 -76.66432 40952 ft 580 kts 59°
2026-05-09 04:45 43.75249 -76.56687 40953 ft 580 kts 59°
2026-05-09 04:46 43.79157 -76.46926 40952 ft 580 kts 59°
2026-05-09 04:46 43.83061 -76.37140 40951 ft 580 kts 59°
2026-05-09 04:47 43.86954 -76.27351 40945 ft 581 kts 59°
2026-05-09 04:47 43.90818 -76.17600 40947 ft 581 kts 59°
2026-05-09 04:48 43.94700 -76.07772 40949 ft 581 kts 59°
2026-05-09 04:48 43.99072 -75.98401 40945 ft 578 kts 54°
2026-05-09 04:49 44.03468 -75.89025 40945 ft 579 kts 54°
2026-05-09 04:49 44.07274 -75.81021 40919 ft 579 kts 54°
2026-05-09 04:50 44.07535 -75.80471 40916 ft 579 kts 54°
2026-05-09 04:50 44.11935 -75.71091 40914 ft 579 kts 55°
2026-05-09 04:51 44.16312 -75.61780 40915 ft 579 kts 55°
2026-05-09 04:51 44.20705 -75.52381 40924 ft 579 kts 55°
2026-05-09 04:52 44.25093 -75.42968 40931 ft 579 kts 55°
2026-05-09 04:52 44.29463 -75.33564 40693 ft 572 kts 55°
2026-05-09 04:52 44.31617 -75.28914 39961 ft 568 kts 55°
2026-05-09 04:53 44.33728 -75.24356 39229 ft 565 kts 56°
2026-05-09 04:53 44.35857 -75.19752 38472 ft 563 kts 56°
2026-05-09 04:53 44.37969 -75.15171 37695 ft 559 kts 56°
2026-05-09 04:53 44.40063 -75.10622 36967 ft 555 kts 56°
2026-05-09 04:54 44.42148 -75.06089 36240 ft 554 kts 56°
2026-05-09 04:54 44.44237 -75.01545 35506 ft 555 kts 56°
2026-05-09 04:54 44.46320 -74.96997 34774 ft 555 kts 56°
2026-05-09 04:54 44.48396 -74.92461 34052 ft 551 kts 56°
2026-05-09 04:55 44.50423 -74.88024 33285 ft 544 kts 56°
2026-05-09 04:55 44.52444 -74.83595 32574 ft 535 kts 56°
2026-05-09 04:55 44.54429 -74.79239 31872 ft 525 kts 56°
2026-05-09 04:55 44.56377 -74.74957 31187 ft 517 kts 56°
2026-05-09 04:56 44.58293 -74.70739 30513 ft 509 kts 56°
2026-05-09 04:56 44.60177 -74.66585 29815 ft 501 kts 56°
2026-05-09 04:56 44.62025 -74.62504 29133 ft 490 kts 56°
2026-05-09 04:56 44.63833 -74.58504 28504 ft 480 kts 56°
2026-05-09 04:57 44.65583 -74.54632 27884 ft 472 kts 56°
2026-05-09 04:57 44.67326 -74.50767 27268 ft 465 kts 56°
2026-05-09 04:57 44.69046 -74.46948 26661 ft 459 kts 56°
2026-05-09 04:57 44.70745 -74.43175 26053 ft 454 kts 56°
2026-05-09 04:58 44.72423 -74.39438 25457 ft 450 kts 56°
2026-05-09 04:58 44.74083 -74.35738 24868 ft 445 kts 56°
2026-05-09 04:58 44.75723 -74.32078 24284 ft 440 kts 56°
2026-05-09 04:58 44.77344 -74.28457 23698 ft 435 kts 56°
2026-05-09 04:59 44.78922 -74.24926 23092 ft 429 kts 56°
2026-05-09 04:59 44.80496 -74.21398 22587 ft 422 kts 56°
2026-05-09 04:59 44.82049 -74.17918 22100 ft 419 kts 56°
2026-05-09 04:59 44.83600 -74.14437 21545 ft 419 kts 56°
2026-05-09 05:00 44.85144 -74.10965 21016 ft 417 kts 56°
2026-05-09 05:00 44.86677 -74.07512 20497 ft 414 kts 56°
2026-05-09 05:00 44.88202 -74.04076 19974 ft 413 kts 56°
2026-05-09 05:00 44.89720 -74.00649 19441 ft 411 kts 56°
2026-05-09 05:01 44.91213 -73.97281 18925 ft 410 kts 56°
2026-05-09 05:01 44.92715 -73.93879 18408 ft 408 kts 56°
2026-05-09 05:01 44.94211 -73.90491 17855 ft 405 kts 56°
2026-05-09 05:01 44.95687 -73.87145 17463 ft 397 kts 56°
2026-05-09 05:02 44.97119 -73.83895 17082 ft 382 kts 56°
2026-05-09 05:02 44.98500 -73.80751 16723 ft 373 kts 56°
2026-05-09 05:02 44.99861 -73.77660 16297 ft 369 kts 56°
2026-05-09 05:02 45.01210 -73.74592 15848 ft 366 kts 56°
2026-05-09 05:03 45.02524 -73.71592 15407 ft 362 kts 56°
2026-05-09 05:03 45.03840 -73.68590 14981 ft 357 kts 56°
2026-05-09 05:03 45.05141 -73.65617 14544 ft 354 kts 56°
2026-05-09 05:03 45.06431 -73.62667 14113 ft 351 kts 56°
2026-05-09 05:04 45.07713 -73.59738 13666 ft 349 kts 56°
2026-05-09 05:04 45.09032 -73.56885 13209 ft 342 kts 49°
2026-05-09 05:04 45.10238 -73.55078 12922 ft 335 kts 40°
2026-05-09 05:04 45.11926 -73.52853 12547 ft 328 kts 40°
2026-05-09 05:05 45.13527 -73.50663 12190 ft 320 kts 40°
2026-05-09 05:05 45.15112 -73.48506 11847 ft 313 kts 40°
2026-05-09 05:05 45.16670 -73.46393 11477 ft 308 kts 40°
2026-05-09 05:05 45.18212 -73.44302 11082 ft 306 kts 40°
2026-05-09 05:06 45.19745 -73.42231 10701 ft 304 kts 40°
2026-05-09 05:06 45.21295 -73.40224 10317 ft 300 kts 37°
2026-05-09 05:06 45.22882 -73.38326 9951 ft 297 kts 37°
2026-05-09 05:06 45.24459 -73.36466 9613 ft 291 kts 36°
2026-05-09 05:07 45.25983 -73.34677 9283 ft 288 kts 36°
2026-05-09 05:07 45.27530 -73.32866 8784 ft 288 kts 36°
2026-05-09 05:07 45.29182 -73.31342 8295 ft 281 kts 20°
2026-05-09 05:07 45.30999 -73.30393 7890 ft 277 kts 14°
2026-05-09 05:08 45.32816 -73.29539 7544 ft 273 kts 14°
2026-05-09 05:08 45.34600 -73.28709 7279 ft 267 kts 14°
2026-05-09 05:08 45.36342 -73.27903 7017 ft 260 kts 14°
2026-05-09 05:08 45.38056 -73.27105 6756 ft 257 kts 14°
2026-05-09 05:09 45.39715 -73.26334 6508 ft 252 kts 14°
2026-05-09 05:09 45.41377 -73.25557 6250 ft 250 kts 14°
2026-05-09 05:09 45.43011 -73.24799 5992 ft 243 kts 14°
2026-05-09 05:09 45.44587 -73.24068 5721 ft 234 kts 14°
2026-05-09 05:10 45.46131 -73.23354 5467 ft 232 kts 14°
2026-05-09 05:10 45.47648 -73.22657 5206 ft 228 kts 14°
2026-05-09 05:10 45.49143 -73.21964 4952 ft 225 kts 14°
2026-05-09 05:10 45.50629 -73.21284 4676 ft 222 kts 14°
2026-05-09 05:11 45.52078 -73.20632 4425 ft 221 kts 14°
2026-05-09 05:11 45.53527 -73.19965 4158 ft 218 kts 14°
2026-05-09 05:11 45.54957 -73.19307 3882 ft 214 kts 14°
2026-05-09 05:11 45.56361 -73.18665 3653 ft 212 kts 13°
2026-05-09 05:12 45.57783 -73.18032 3366 ft 214 kts 14°
2026-05-09 05:12 45.59198 -73.17380 3097 ft 212 kts 14°
2026-05-09 05:12 45.60618 -73.17148 2818 ft 204 kts 345°
2026-05-09 05:12 45.61808 -73.18118 2617 ft 200 kts 314°
2026-05-09 05:13 45.62473 -73.19751 2424 ft 191 kts 283°
2026-05-09 05:13 45.62391 -73.21590 2277 ft 185 kts 256°
2026-05-09 05:13 45.61737 -73.23141 2147 ft 183 kts 236°
2026-05-09 05:13 45.61014 -73.24607 2042 ft 175 kts 240°
2026-05-09 05:14 45.60382 -73.26030 1913 ft 168 kts 240°
2026-05-09 05:14 45.59735 -73.27383 1841 ft 164 kts 237°
2026-05-09 05:14 45.59074 -73.28703 1710 ft 162 kts 239°
2026-05-09 05:14 45.58436 -73.30018 1570 ft 162 kts 238°
2026-05-09 05:15 45.57812 -73.31342 1427 ft 161 kts 238°
2026-05-09 05:15 45.57171 -73.32642 1308 ft 157 kts 238°
2026-05-09 05:15 45.56565 -73.33930 1167 ft 159 kts 238°
2026-05-09 05:15 45.55918 -73.35245 1010 ft 163 kts 235°
2026-05-09 05:16 45.55243 -73.36569 920 ft 168 kts 231°
2026-05-09 05:16 45.54461 -73.37754 686 ft 156 kts 225°
2026-05-09 05:16 45.53743 -73.38842 474 ft 144 kts 225°
2026-05-09 05:16 45.53111 -73.39804 290 ft 123 kts 226°
2026-05-09 05:17 45.52549 -73.40667 132 ft 114 kts 226°
2026-05-09 05:17 45.52061 -73.41416 90 ft 88 kts 226°
2026-05-09 05:17 45.51772 -73.41853 90 ft 36 kts 227°
2026-05-09 05:17 45.51670 -73.42010 90 ft 15 kts 227°
2026-05-09 05:18 45.51664 -73.42018 91 ft 0 kts 227°
2026-05-09 05:18 45.51647 -73.42049 90 ft 10 kts 239°
2026-05-09 05:19 45.51645 -73.42109 87 ft 12 kts 284°
2026-05-09 05:19 45.51665 -73.42199 88 ft 13 kts 294°
2026-05-09 05:19 45.51752 -73.42254 88 ft 15 kts 348°
2026-05-09 05:20 45.51837 -73.42279 88 ft 0 kts 348°
2026-05-09 05:21 45.51870 -73.42289 90 ft 9 kts 348°
2026-05-09 05:21 45.51876 -73.42291 89 ft 0 kts 348°
2026-05-09 05:22 45.51914 -73.42275 93 ft 7 kts 21°
2026-05-09 05:22 45.51946 -73.42324 91 ft 6 kts 292°
2026-05-09 05:22 45.51952 -73.42325 91 ft 2 kts 347°
2026-05-09 05:23 45.51980 -73.42344 92 ft 5 kts 293°
2026-05-09 05:23 45.51971 -73.42358 91 ft 0 kts 172°